Tracking 19831 objects as of 23-Aug-2019
HD Live streaming from Space Station
objects crossing your sky now

CZ-5 R/B

Track CZ-5 R/B now!
10-day predictions


NORAD ID: 41839
Int'l Code: 2016-065B
Perigee: 219.7 km
Apogee: 23,664.7 km
Inclination: 19.5 °
Period: 411.1 minutes
Semi major axis: 18313 km
RCS: Unknown
Launch date: November 3, 2016
Source: People's Republic of China (PRC)
Launch site: Wenchang Satellite Launch Center (WSC)

Note: This is a ROCKET BODY
aabbcc
Your satellite tracking list
Your tracking list is empty




NASA's NSSDC Master Catalog

Two Line Element Set (TLE):
1 41839U 16065B   19234.50132673  .00003823  00000-0  23248-3 0  9997
2 41839  19.5324 342.0210 6401129 253.2022  31.4965  3.50312818 33210
Source of the keplerian elements: AFSPC